Regional Weather Roundup
Issued by NWS Newport/Morehead, NC

Current Version | Previous Version | Text Only | Print | Product List | Glossary On
Versions: 1 2 3 4 5 6 7 8 9 10 11 12 13 14 15 16 17 18 19 20 21 22 23 24 25 26 27 28 29 30 31 32 33 34 35 36 37 38 39 40 41 42 43 44 45 46 47 48 49 50
000
ASUS42 KMHX 040313
RWRMHX
WEATHER ROUNDUP FOR EASTERN NORTH CAROLINA
NATIONAL WEATHER SERVICE NEWPORT/MOREHEAD CITY NC
1100 PM EDT TUE MAY 03 2016

NOTE: "FAIR" INDICATES FEW OR NO CLOUDS BELOW 12,000 FEET
WITH NO SIGNIFICANT WEATHER AND/OR OBSTRUCTIONS TO VISIBILITY

NCZ015>017-031-032-045>047-102-103-040400-
NORTH COAST

CITY           SKY/WX    TMP DP  RH WIND       PRES   REMARKS
EDENTON        CLOUDY    70  70 100 CALM      29.75S
ELIZABETH CITY CLOUDY    67  59  75 N18       29.76R
KITTY HAWK     LGT RAIN  69  66  91 SW5       29.73R
MANTEO         NOT AVBL

$$

NCZ045>047-081-094-103-104-040400-
CENTRAL COAST

CITY           SKY/WX    TMP DP  RH WIND       PRES   REMARKS
FRISCO         MOCLDY    70  69  97 SW10      29.76F
SWANQUARTER    NOT AVBL

$$

NCZ095-097-098-100-101-040400-
SOUTHERN COAST

CITY           SKY/WX    TMP DP  RH WIND       PRES   REMARKS
BEAUFORT       CLOUDY    71  70  96 S9        29.76F
CEDAR ISLAND   NOT AVBL
JACKSONVILLE   CLOUDY    70  66  87 SW9       29.73F
PINEY ISLAND   NOT AVBL
WILMINGTON     CLEAR     70  69  97 S7        29.76F


$$

NCZ011>013-027>030-043-044-078>080-089-090>093-098-040400-
COASTAL PLAIN

CITY           SKY/WX    TMP DP  RH WIND       PRES   REMARKS
AHOSKIE        CLOUDY    63  60  90 CALM      29.75S
CLINTON        CLEAR     65  65 100 CALM      29.75S
ELIZABETHTOWN  CLOUDY    69  67  94 SE5       29.75S
GOLDSBORO      TSTM      66  66 100 W5        29.74S
GREENVILLE     MOCLDY    63  63 100 CALM      29.77F
HAVELOCK       PTCLDY    70  68  93 S3        29.76F
KENANSVILLE    CLOUDY    67  64  90 CALM      29.75F
KINSTON        PTCLDY    66  61  83 SE5       29.75F
NEW BERN       CLOUDY    69  65  86 N6        29.77F
RICHLANDS      CLOUDY    68  66  93 SW6       29.74F
ROCKY MOUNT    CLOUDY    62  61  96 CALM      29.73F
WASHINGTON     CLOUDY    63  61  94 S6        29.73F
WHITEVILLE     NOT AVBL

$$

AMZ130-135-150-152-154-156-158-170-250-252-270-ANZ085-086-088-633-658-670-040400-
MARINE OBSERVATIONS

STATION/POSITION TIME  TEMP    WIND        PRES    WAVE   SWELL
                       AIR SEA DIR/SP/G            HT/PER HT/PER
                 (UTC) (F)     (DEG/KT/KT) (MB)    (FT/S) (FT/S)
CHESAPEAKE LIGHT 0200   62      20/ 15/ 16 1008.1
64 E VA BEACH    0250   59 54  180/  6/  6 1007.2    4/ 7   3/ 7
DUCK             NOT AVBL
2 E DUCK         0211      58                N/A     2/ 9
OREGON INLET     0200   70 72              1007.7
13E OREGON INLT  0200      62                N/A     3/ 8   2/ 8
HATTERAS CG      0200   71 70              1008.0
DIAMOND BUOY     0250   73 72  230/ 16/ 19 1007.5    4/ 4   2/ 7
CAPE LOOKOUT     0300   71     210/  7/  9 1007.7
BEAUFORT LAB     0200   71 67              1007.5
30 SE NEW RVR IN 0225      71                N/A     5/ 7
27 SE WRIGHTSVLE 0208   73 72  230/ 12/ 17   N/A
5 SE WRIGHTSVLE  0208   71 70  210/ 10/ 12 1009.8
225 S CAPE HAT   0250   74 74  170/ 14/ 17 1011.9    5/ 6   2/ 9
41 SE CHARLESTON 0250   76 75  270/ 10/ 12 1009.6    4/ 5   3/ 7

$$



USA.gov is the U.S. government's official web portal to all federal, state and local government web resources and services.